User: anonymous   Login
Location: York
(31.8935°S, 116.7682°E)
Time: 01:53:28
(UTC+08:00)
Language:

SR - Orbit

View from above orbital plane
View from above orbital plane
View from above satellite
View from above satellite

Ground track
Ground track

The orbit data is extracted from the following two-line orbital elements,

1    46U 60007B   21169.19789208  .00000018  00000-0  26618-4 0  9992
2    46  66.6891 138.1748 0215071 220.1290 138.3767 14.49408331192107
Epoch (UTC): 18 June 2021 04:44:57
Eccentricity: 0.0215071
inclination: 66.6891°
perigee height: 575 km
apogee height: 880 km
right ascension of ascending node: 138.1748°
argument of perigee: 220.1290°
revolutions per day: 14.49408331
mean anomaly at epoch: 138.3767°
orbit number at epoch: 19210

The dashed part of the orbit path shows where the satellite is in the earth's shadow,  

DLR